Terminal Aerodrome Forecast
Issued by NWS San Angelo, TX

Home | Current Version | Previous Version | Text Only | Print | Product List | Glossary On
Versions: 1 2 3 4 5 6 7 8 9 10 11 12 13 14 15 16 17 18
000
FTUS44 KSJT 232300
TAFSJT
TAF
KSJT 232326Z 2400/2424 32013G19KT P6SM FEW120
     FM240200 35012KT P6SM FEW120
     FM240800 30006KT P6SM SKC
     FM241900 22005KT P6SM SKC=

USA.gov is the U.S. government's official web portal to all federal, state and local government web resources and services.